Regional Weather Roundup
Issued by NWS

Home | Current Version | Previous Version | Text Only | Print | Product List | Glossary On
Versions: 1 2 3 4 5 6 7 8 9 10 11 12 13 14 15 16 17 18 19 20 21 22 23 24 25 26 27
000
ASUS45 KPSR 251710
RWRAZ

ARIZONA HOURLY REGIONAL WEATHER ROUNDUP
NATIONAL WEATHER SERVICE PHOENIX AZ
1000 AM MST WED MAY 25 2016

NOTE: FAIR INDICATES FEW OR NO CLOUDS BELOW 12,000 FEET WITH NO
SIGNIFICANT WEATHER AND/OR OBSTRUCTIONS TO VISIBILITY.

AZZ001>003-036-251800-
NORTHWEST ARIZONA

CITY           SKY/WX    TMP DP  RH WIND       PRES   REMARKS
BULLHEAD CITY  SUNNY     75  36  23 SW6       29.96S
KINGMAN        SUNNY     72  24  16 S18G24    30.01S
$$

AZZ004>008-015-016-018-251800-
NORTH CENTRAL ARIZONA

CITY           SKY/WX    TMP DP  RH WIND       PRES   REMARKS
GRAND CANYON   SUNNY     57  17  21 VRB6      30.14S
WILLIAMS       SUNNY     59  18  20 S14G20    30.20S
PRESCOTT       SUNNY     65  25  22 SW12      30.08F
FLAGSTAFF      NOT AVBL
PAYSON         SUNNY     66  21  18 SE10G18   30.13S
PAGE           SUNNY     67  19  16 CALM      30.04F
$$

AZZ009>014-017-251800-
NORTHEAST ARIZONA

CITY           SKY/WX    TMP DP  RH WIND       PRES   REMARKS
WINSLOW        SUNNY     69  25  19 VRB7      30.08F
SAINT JOHNS    SUNNY     67  25  20 MISG      30.10F
WINDOW ROCK    SUNNY     63  21  20 SW14G20   30.16F
SHOW LOW       SUNNY     63  23  22 SW20G29   30.16S
$$

AZZ023-251800-
GREATER PHOENIX AREA

CITY           SKY/WX    TMP DP  RH WIND       PRES   REMARKS
PHOENIX        SUNNY     79  32  18 S5        29.95S
BUCKEYE        SUNNY     77  34  20 S5        29.97F
GLENDALE       SUNNY     79  32  18 CALM      29.97S
LUKE AFB       SUNNY     78  33  19 SE3       29.95S
DEER VALLEY    SUNNY     77  29  17 SW6       29.96F
SCOTTSDALE     SUNNY     78  24  13 VRB5      29.98S
CHANDLER       SUNNY     79  28  15 S7        29.97S
$$

AZZ027-028-251800-
SOUTHWEST MARICOPA COUNTY AND PINAL COUNTY

CITY           SKY/WX    TMP DP  RH WIND       PRES   REMARKS
CASA GRANDE    SUNNY     79  34  19 S9        29.98F
GILA BEND      SUNNY     80  31  16 W9        29.94S
$$

AZZ503-504-507>509-251800-
SOUTHEAST ARIZONA

CITY           SKY/WX    TMP DP  RH WIND       PRES   REMARKS
TUCSON         SUNNY     80  29  15 S8G20     30.04S
DAVIS-MONTHAN  SUNNY     78  31  17 SW9       30.02F
RYAN FIELD     SUNNY     79  30  17 W9G16     30.03S
NOGALES        SUNNY     79  22  12 S12G18    30.09R
SIERRA VISTA   SUNNY     74  16  11 SW13G24   30.12S
DOUGLAS        SUNNY     77  25  14 SW14G22   30.10S
SAFFORD        SUNNY     79  28  15 VRB3      30.01F
$$

AZZ020-021-025-026-031-251800-
SOUTHWEST ARIZONA

CITY           SKY/WX    TMP DP  RH WIND       PRES   REMARKS
YUMA           NOT AVBL
$$

CAZ031-033-041-043-047-048-061-251800-
SOUTHERN CALIFORNIA

CITY           SKY/WX    TMP DP  RH WIND       PRES   REMARKS
DOWNTOWN L.A.  CLOUDY    65  52  62 VRB3      30.08R
L.A. AIRPORT   PTSUNNY   62  51  67 W10       30.09R
SAN DIEGO      PTSUNNY   67  49  52 W9        30.11R
BURBANK        CLOUDY    61  49  64 CALM      30.08R
ONTARIO        CLOUDY    61  44  53 W5        30.07R
RIVERSIDE      PTSUNNY   64  45  49 VRB3      30.08R
PALM SPRINGS   SUNNY     73  37  27 W21G32    29.96F
EL CENTRO NAS  MOSUNNY   74  37  26 W14       29.98S
IMPERIAL       SUNNY     74  39  28 W14       29.96S
BLYTHE         SUNNY     73  45  36 CALM      29.94F
NEEDLES        SUNNY     78  39  24 VRB5      29.93S
$$

NVZ020-UTZ003-251800-
SOUTHERN NEVADA-UTAH

CITY           SKY/WX    TMP DP  RH WIND       PRES   REMARKS
LAS VEGAS      MOSUNNY   72  35  25 CALM      29.93S
SALT LAKE CITY MOSUNNY   62  39  42 CALM      30.03S
$$

NMZ009-TXZ055-251800-
NEW MEXICO-WEST TEXAS

CITY           SKY/WX    TMP DP  RH WIND       PRES   REMARKS
ALBUQUERQUE    SUNNY     69  16  13 W6        30.14F
EL PASO        MOSUNNY   80  30  16 W13G18    30.08F
$$


........................KEY........................
SKY/WX - SKY CONDITION/WEATHER
TMP    - TEMPERATURE IN FAHRENHEIT
DP     - DEW POINT IN FAHRENHEIT
RH     - RELATIVE HUMIDITY IN PERCENT
WIND   - DIRECTION AND SPEED IN MILES PER HOUR (MPH)
VRB    - VARIABLE WIND DIRECTION
PRES   - MEAN SEA LEVEL PRESSURE IN INCHES OF MERCURY
         F - FALLING PRESSURE   R - RISING PRESSURE
         S - STEADY PRESSURE
VSB    - VISIBILITY IN MILES
HX     - HEAT INDEX IN FAHRENHEIT
WCI    - WIND CHILL INDEX IN FAHRENHEIT
TC     - TEMPERATURE IN CELSIUS WHICH IS ALSO KNOWN AS
         TEMPERATURE IN CENTIGRADE
AFB    - AIR FORCE BASE
         LUKE AFB IS LUKE AIR FORCE BASE
         DAVIS-MONTHAN IS DAVIS-MONTHAN AIR FORCE BASE
NAS    - NAVAL AIR STATION
         EL CENTRO NAS IS EL CENTRO NAVAL AIR STATION
N/A    - NOT AVAILABLE





USA.gov is the U.S. government's official web portal to all federal, state and local government web resources and services.